Regional Weather Roundup
Issued by NWS Jackson, KY

Home | Current Version | Previous Version | Graphics & Text | Print | Product List | Glossary On
Versions: 1 2 3 4 5 6 7 8 9 10 11 12 13 14 15 16 17 18 19 20 21 22 23 24 25 26 27 28 29 30 31 32 33 34 35 36 37 38 39 40 41 42 43 44 45 46 47 48 49 50
000
ASUS43 KJKL 281910
RWRJKL

EAST KENTUCKY HOURLY WEATHER ROUNDUP
NATIONAL WEATHER SERVICE JACKSON KY
300 PM EDT SAT MAR 28 2015

NOTE: "FAIR" INDICATES FEW OR NO CLOUDS BELOW 12,000 FEET WITH
NO SIGNIFICANT WEATHER AND/OR OBSTRUCTIONS TO VISIBILITY.

* THESE REPORTS ARE NOT UNDER NWS QUALITY CONTROL AND MAY NOT
  REPORT WEATHER SUCH AS PRECIPITATION AND FOG.

KYZ079-080-083-085-087-088-110-112-115-119-120-282000
...EASTERN KENTUCKY...

CITY           SKY/WX    TMP DP  RH WIND       PRES   REMARKS
JACKSON        SUNNY     36   8  31 N8G17     30.19S WCI  30
LONDON         SUNNY     40  11  30 VRB7G16   30.21S
SOMERSET*      SUNNY     37  14  38 N10       30.26S WCI  30
MONTICELLO*    SUNNY     41  16  36 NE9       30.27F
MIDDLESBORO*   MOSUNNY   40  16  36 NW10G21   30.20S WCI  34
BLACK MTN*       N/A     23  23 100 N6          N/A  WCI  16
PIKEVILLE APT* SUNNY     34  10  37 NW10G18   30.17F WCI  26
BIG SANDY*     CLEAR     36  10  34 NE8       30.19F WCI  29
MOREHEAD APT*  PTCLDY    34  14  44 W10G18    30.26S WCI  26
$$

KYZ035-036-041-042-044-050-067-078-099-282000
...CENTRAL KENTUCKY...

CITY           SKY/WX    TMP DP  RH WIND       PRES   REMARKS
MT STERLING*   SUNNY     36  14  41 NE10G16   30.26S WCI  28
FLEMING/MASON* SUNNY     32  12  43 NW9G16    30.28S WCI  24
DANVILLE*      SUNNY     36  19  51 NE9       30.27S WCI  29
RICHMOND*      SUNNY     36  12  38 NW9       30.24F WCI  29
LEXINGTON      MOSUNNY   38  14  37 NW9       30.26S WCI  31
FRANKFORT      SUNNY     39  11  31 NW12G17   30.26S WCI  32
$$

KYZ091>093-OHZ055-061-077-WVZ005-015-034-035-042-282000
...SOUTHERN OHIO/WEST VIRGINIA...

CITY           SKY/WX    TMP DP  RH WIND       PRES   REMARKS
COVINGTON      MOSUNNY   34  11  38 CALM      30.27F
COLUMBUS       PTSUNNY   31  12  45 N10G24    30.26F WCI  22
DAYTON         MOSUNNY   32  12  43 VRB3      30.29S
WILMINGTON     MOSUNNY   31  12  45 N12       30.26F WCI  22
HUNTINGTON     SUNNY     34   8  33 W7G17     30.23S WCI  28
CHARLESTON     MOSUNNY   32   5  32 NW8       30.20F WCI  25
PINEVILLE*     MOSUNNY   35  14  41 MISG      30.17F
BECKLEY        PTSUNNY   25   6  44 W14       30.08S WCI  13
BLUEFIELD      MOSUNNY   30   7  37 W12G22    30.04R WCI  20
$$

VAZ002-007-008-TNZ017-027-036-066-071-282000
...SOUTHWEST VIRGINIA/EAST TENNESSEE...

CITY           SKY/WX    TMP DP  RH WIND       PRES   REMARKS
WISE*          MOSUNNY   32  12  43 NW9G20    30.09S WCI  24
JONESVILLE*    PTCLDY    39  12  33 NW5       30.18F
ABINGDON*      MOSUNNY   35  12  38 N16       30.10S WCI  25
BRISTOL        MOSUNNY   39  14  36 NW16      30.13S WCI  30
KNOXVILLE      MOSUNNY   44  14  29 N12G17    30.18F
OAK RIDGE      SUNNY     48  14  25 VRB3      30.19F
CROSSVILLE     SUNNY     41  10  28 N10       30.17S
NASHVILLE      MOSUNNY   47  12  24 N8        30.28S
$$

...KEY TO REMARKS...
VSB - VISIBILITY IN MILES
WCI - WIND CHILL INDEX
HX  - HEAT INDEX

$$



USA.gov is the U.S. government's official web portal to all federal, state and local government web resources and services.